Погода в Варзуге

Погода в Варзуге : погода сейчас, прогноз погоды и архив. Всё, что Вы хотите узнать о погоде в Варзуге!

Поиск расширенной информации на нашем сайте:

Полезная информация: http://cheeky-chimp.prom.ua/ бодики интернет магазин детской одежды бодик.

Другие новости

Новости СМИ2

Главная страница сайта

Новости сайта

02.10.2013

Напоминаем, что на нашем новом сайте вы можете получить высокодетализированные прогнозы погоды по пунктам России, СНГ и мира (включающие важные для авиации метеовеличины, такие как направление и скорость ветра, видимость, явления погоды, количество и форма облачности, нижняя и верхняя граница облачности), а также ознакомиться с разнообразными материалами по авиационной метеорологии и подборкой полезных ссылок на эту тему.

Сайт Метеоцентр.Азия посвящён разработке технологий оптимизации авиаметеорологического обслуживания, включая проектирование и перспективное создание нескольких автоматизированных авиаметеорологических систем:
- система выпуска высокодетальных прогностических карт явлений погоды для нижнего воздушного пространства по России и ближнему зарубежью;
- система верификации прогнозов TAF (выпускаемых синоптиками официальных АМСГ РФ и ближнего зарубежья) и AUTOTAF (выпускаемых сайтом Метеоцентр.Азия) - выявление ошибок, онлайн-сопоставление с фактической погодой METAR, автоматическое внесение коррективов в прогнозы при резком отклонении фактической погоды от прогноза, подсчёт оправдываемости прогнозов по элементам и в целом;
- система обработки, анализа и отображения авиаметеорологической информации для применения провайдерами метеорологической информации.

Рекомендуем: предлагаем помещения: купить офис в БЦ Школа Журналистов у метро Тверская

Погода в Варзуге - сегодня

Время (UTC), дата Ветер
(°,м/с) 
Видим.   Явления Облачность Т
(°С)
Тd
(°С)
f(%) Тe
(°С)
Pmin
(гПа)
dP
(гПа)
Po
(мм)
O2
(г/м3)
Тmin Tmax R s Состояние
почвы
03 17.02.17 280 (З) 5-7  н/о    н/о 
-1.5 -3.3 88 -5  998.3  -1.6  748  304  -1.7         
06 17.02.17 280 (З) 4-6  20000 м    10/10 600 м кучево-дожд. 
[Cb cap]
-2.1 -3.7 89 -5  997.2  -1.1  747  304  -2.1    0.0  15  неравномерный
сухой снег
100% 
09 17.02.17 210 (ЮЗ) 3-3  н/о    н/о 
-2.4 -3.6 91 -4  996.1  -1.1  747  304           
12 17.02.17 200 (Ю) 6-7  н/о    н/о 
-1.9 -1.9 100 -6  993.5  -2.6  745  302           
15 17.02.17 220 (ЮЗ) 7-8  н/о    н/о 
-1.7 -1.7 100 -6  990.7  -2.8  743  301           
18 17.02.17 260 (З) 6-7  4000 м    10/10 600 м кучево-дожд. 
[Cb cap]
-1.5 -1.5 100 -5  988.5  -2.2  741  300    -1.5     
21 17.02.17 300 (СЗ) 5-7  н/о    н/о 
-2.3 -2.3 100 -6  987.4  -1.1  740  301           
00 18.02.17 330 (СЗ) 4-7{10}  н/о    н/о 
-5.9 -6.4 96 -9  988.9  1.5  741  306           
03 18.02.17 340 (С) 4-7  н/о    н/о 
-6.9 -7.6 95 -10  990  1.1  742  307  -6.9         
06 18.02.17 350 (С) 4-6  20000 м    9/9 600 м 
[Sc]
-7.5 -8.2 95 -11  991  743  309  -7.8    0.7  22  неравномерный
сухой снег
100% 
09 18.02.17 340 (С) 4-7  н/о    н/о 
-6.8 -7.9 92 -10  992.7  1.7  744  308           
12 18.02.17 360 (С) 6-8  н/о    н/о 
-5.3 -8.1 81 -10  994.7  1.9  746  307           
15 18.02.17 360 (С) 5-5  н/о    н/о 
-8.7 -11.1 83 -13  997.6  2.9  748  312           
18 18.02.17 010 (С) 6-7  20000 м    8/0 верхняя 
[Ci]
-10.3 -13.2 79 -16  999.5  749  315    -5.3       
21 18.02.17 010 (С) 6-7  н/о    н/о 
-11.6 -14.5 79 -17  999.8  0.3  749  317           
00 19.02.17 320 (СЗ) 1-2  н/о    н/о 
-12.6 -15.2 81 -13  999.6  -0.2  749  318           
03 19.02.17 240 (ЮЗ) 9-10{10}  н/о    н/о 
-4.9 -6.8 87 -11  997.7  -1.9  748  308  -14.9         
06 19.02.17 310 (СЗ) 4-7{11}  10 км    10/10 300 м кучево-дожд. 
[Cb cap]
-6.2 -7.7 89 -10  995.6  -2  746  308  -14.9    0.2  25  неравномерный
сухой снег
100% 
09 19.02.17 320 (СЗ) 4-5  н/о    н/о 
-7.6 -10.5 80 -11  995.3  -0.3  746  310           
12 19.02.17 360 (С) 2-2  н/о    н/о 
-8.6 -11.9 77 -10  994.6  -0.7  745  311           
15 19.02.17 010 (С) 3-3  н/о    н/о 
-13.4 -15.2 86 -17  993.4  -1.2  745  317           
18 19.02.17 020 (С) 3-4  20000 м    ясно 
-16.2 -18.4 83 -20  992.2  -1.2  744  320    -6.2  0.0     
21 19.02.17 020 (С) 4-4  н/о    н/о 
-16.8 -19 83 -22  990.7  -1.5  743  320           
00 20.02.17 020 (С) 5-7  н/о    н/о 
-15.1 -17.1 85 -21  988.7  -1.9  741  317           
03 20.02.17 030 (СВ) 6-8  н/о    н/о 
-16.4 -18.6 83 -23  988.3  -0.4  741  319  -17.8         
Время (UTC), дата Ветер
(°,м/с) 
Видим.   Явления Облачность Т
(°С)
Тd
(°С)
f(%) Тe
(°С)
Pmin
(гПа)
dP
(гПа)
Po
(мм)
O2
(г/м3)
Тmin Tmax R s Состояние
почвы

Для получения пояснительной информации подведите курсор к названию столбца.

ПОГОДА в Варзуге - архив

Всё, что Вы хотите узнать о погоде в Варзуге - удобно и подробно!

Выберите нужную дату (начиная с 1 января 2015* года) и нажмите кнопку "Найти".
Будут отображены архивные сводки погоды по пункту Варзуга, начиная с указанной даты.


Отображать данные в формате CSV (для использования в таблицах Excel)


Внимание! Наш архив погоды предназначен исключительно для личного некоммерческого использования в познавательных целях. Если Вам необходимы официальные справки о состоянии погоды (для производственных, юридических, коммерческих и т.п. целей), обращайтесь в органы Росгидромета.

*Примечание: данная дата относится к архиву по метеостанциям СССР (Россия, СНГ, Балтия).
Архив по метеостанциям Зарубежной Европы и Азии (кроме Китая) хранится 10 дней, по другим регионам земного шара (Китай, Африка, Америка, Австралия, Океания) - 1 день.

Варзуга - район местоположения метеостанции


Название, широта, долгота, высота метеостанции:
Варзуга 66.4°ш. 36.6°д. 6 м над ур. моря [Российская Федерация]

Дополнительная информация

В oтличие oт бoльшинства пoгoдных сайтoв мы публикуем пoдрoбную метеoинфoрмацию в детальнoм прoфессиoнальнoм фoрмате.

Характеристики температуры и влажнoсти вoздуха измеряются на высoте 2 м в тени вдали oт зданий и деревьев.
Скoрoсть ветра измеряется на высoте 10 м (на урoвне рoста челoвека скoрoсть ветра ниже в 1.5-2 раза). Если метеoстанция нахoдится в гoрoде или в лесу, тo скoрoсть ветра занижена на 2-4 м/с пo сравнению с oткрытым местoм. Скoрoсть ветра над акватoриями крупных рек и oзёр, а также на вершинах хoлмoв на 2-5 м/с выше, чем в oбычных услoвиях.
Атмoсфернoе давление в разных тoчках местнoсти мoжет значительнo oтличаться oт давления на метеoстанции, в зависимoсти oт услoвий рельефа (при пoдъёме на 10 м давление пoнижается примернo на 1 мм рт.ст.).